Location: North Evanston
(42.0634°N, 87.6976°W)
Time: 22:30:10
(UTC+00:00)

Transit 2A - Pass Details

Date: 13 May 2026
Orbit: 595 x 949 km, 66.7° (Epoch: 5 June)

Event Time Altitude Azimuth Distance (km) Brightness Sun altitude
Rises 23:13:31 0° 246° (WSW) 3,582 10.4 18.4°
Reaches altitude 10° 23:16:34 10° 259° (WSW) 2,611 10.3 17.9°
Maximum altitude 23:21:32 26° 314° (NW) 1,682 8.9 17.0°
Drops below altitude 10° 23:26:16 10° 9° (N) 2,460 8.7 16.1°
Sets 23:29:04 0° 23° (NNE) 3,335 9.2 15.6°
